map of LDH home
LDH - Airport
Location
City:  Lord Howe Island, New South Wales, Australia
ICAO:YLHI
IATA:LDH

Details
Type:Airport (Aerodrome, Airfield)
Latitude:3132'19"S (-31.538610)
Longitude:15904'35"E (159.076389)
Elevation:17 ft (5 m)
Variation:14.04E (WMM2015 magnetic declination)
0.02 annual change
Runways:1
Longest:2903 ft (885 m)

Time
Time Zone:UTC+10:30 (DST+11)
Local Time:

Weather
METAR:YLHI 260000Z 27017KT 9999 FEW040 19/12 Q1019
TAF:YLHI 251721Z 2518/2618 28014KT 9999 SCT025
FM260200 28018G28KT 9999 -SHRA FEW020
BECMG 2612/2614 24020G30KT 9999 -SHRA SCT030 PROB30 INTER 2606/2612 VRB25G35KT 3000 TSRA SCT020 SCT050CB

Related Locations
Nearby:
Farthest:FNC: 12187 mi / 19613 km
Funchal [Madeira Airport], 30, PT

Find:

   beyond  
but within

Other Information
Maps:
NOTAMs:
Links:
Sources:

  
flag of Australia
flag of New South Wales
flag of Lord Howe Island
  

Sectional Chart

Flight Planning
at skyvector.com

Satellite Image

Google Maps Satellite view

 

Copyright © 2004-2017 Karl L. Swartz. All rights reserved.
The Great Circle Mapper name and logo are trademarks of the Great Circle Mapper.
All other trademarks mentioned herein belong to their respective owners.
Please see credits for attibutions and further copyright information.

  Follow gcmap on Facebook Follow gcmap on Twitter Follow gcmap on Google+ GCmap on LinkedIn

hCard Microformat

Geo Microformat